CCM26E LFKF-LFML

Flight info

Callsign CCM26E
Flight time N/A
Altitude 24000
Route AJO Z154 TINOT
Aircraft A20N/M-SDE2E3FGHIRWXY/LB1

Departure

Time 2026-05-06 19:04
Airport Figari Sud-Corse Airport (LFKF)

Arrival

Time N/A
Airport Marseille Provence Airport (LFML)
Time Latitude Longitude Altitude Speed Heading
2026-05-06 18:41 41.49966 9.09791 73 ft 0 kts 140°
2026-05-06 18:56 41.49975 9.09781 72 ft 0 kts 140°
2026-05-06 18:56 41.49984 9.09770 71 ft 2 kts 122°
2026-05-06 18:56 41.49990 9.09751 71 ft 2 kts 102°
2026-05-06 18:57 41.49991 9.09731 70 ft 2 kts 81°
2026-05-06 18:57 41.49987 9.09712 70 ft 2 kts 60°
2026-05-06 18:57 41.49982 9.09702 70 ft 1 kts 48°
2026-05-06 18:57 41.49977 9.09696 70 ft 0 kts 46°
2026-05-06 19:00 41.49977 9.09697 70 ft 0 kts 46°
2026-05-06 19:00 41.49991 9.09717 70 ft 5 kts 47°
2026-05-06 19:00 41.50028 9.09770 71 ft 10 kts 47°
2026-05-06 19:00 41.50113 9.09788 72 ft 16 kts 327°
2026-05-06 19:01 41.50216 9.09709 71 ft 17 kts 16°
2026-05-06 19:01 41.50311 9.09821 74 ft 19 kts 47°
2026-05-06 19:01 41.50411 9.09964 75 ft 22 kts 46°
2026-05-06 19:01 41.50525 9.10129 76 ft 26 kts 47°
2026-05-06 19:02 41.50653 9.10318 77 ft 28 kts 47°
2026-05-06 19:02 41.50780 9.10501 79 ft 25 kts 47°
2026-05-06 19:02 41.50891 9.10662 81 ft 20 kts 47°
2026-05-06 19:02 41.50925 9.10778 82 ft 9 kts 72°
2026-05-06 19:03 41.50966 9.10768 83 ft 9 kts 262°
2026-05-06 19:03 41.50914 9.10697 81 ft 11 kts 229°
2026-05-06 19:03 41.50857 9.10611 81 ft 13 kts 226°
2026-05-06 19:03 41.50766 9.10483 79 ft 42 kts 228°
2026-05-06 19:04 41.50380 9.09920 75 ft 119 kts 227°
2026-05-06 19:04 41.49681 9.08937 246 ft 159 kts 226°
2026-05-06 19:04 41.48880 9.07892 830 ft 168 kts 220°
2026-05-06 19:04 41.47860 9.07098 1464 ft 175 kts 204°
2026-05-06 19:05 41.46677 9.06552 2004 ft 184 kts 198°
2026-05-06 19:05 41.45401 9.06018 2451 ft 201 kts 199°
2026-05-06 19:05 41.44027 9.05369 2952 ft 218 kts 201°
2026-05-06 19:05 41.42589 9.04629 3600 ft 229 kts 203°
2026-05-06 19:06 41.41275 9.03503 4563 ft 224 kts 232°
2026-05-06 19:06 41.40662 9.01669 5400 ft 223 kts 265°
2026-05-06 19:06 41.40908 8.99662 6179 ft 225 kts 295°
2026-05-06 19:06 41.41592 8.97817 6969 ft 228 kts 296°
2026-05-06 19:07 41.42289 8.95936 7767 ft 230 kts 295°
2026-05-06 19:07 41.43036 8.94055 8515 ft 235 kts 305°
2026-05-06 19:07 41.44334 8.92612 9003 ft 256 kts 333°
2026-05-06 19:07 41.46044 8.91786 9515 ft 272 kts 340°
2026-05-06 19:08 41.47934 8.91033 9989 ft 288 kts 340°
2026-05-06 19:08 41.49888 8.90229 10563 ft 301 kts 339°
2026-05-06 19:08 41.51917 8.89342 10992 ft 318 kts 338°
2026-05-06 19:08 41.54063 8.88365 11368 ft 336 kts 338°
2026-05-06 19:09 41.56341 8.87306 11707 ft 354 kts 338°
2026-05-06 19:09 41.58712 8.86190 12033 ft 371 kts 337°
2026-05-06 19:09 41.61195 8.85018 12580 ft 380 kts 337°
2026-05-06 19:09 41.63706 8.83828 13276 ft 384 kts 337°
2026-05-06 19:10 41.66206 8.82643 13934 ft 389 kts 337°
2026-05-06 19:10 41.68795 8.81411 14579 ft 394 kts 337°
2026-05-06 19:10 41.71360 8.80189 15185 ft 399 kts 337°
2026-05-06 19:10 41.73991 8.78905 15770 ft 402 kts 333°
2026-05-06 19:11 41.76348 8.76939 16308 ft 399 kts 313°
2026-05-06 19:11 41.78044 8.74056 16903 ft 393 kts 294°
2026-05-06 19:11 41.79084 8.70740 17503 ft 393 kts 287°
2026-05-06 19:11 41.80043 8.67281 18089 ft 396 kts 286°
2026-05-06 19:12 41.81009 8.63801 18665 ft 400 kts 287°
2026-05-06 19:12 41.81975 8.60359 19257 ft 402 kts 287°
2026-05-06 19:12 41.82970 8.56837 19860 ft 404 kts 287°
2026-05-06 19:12 41.83966 8.53327 20435 ft 406 kts 287°
2026-05-06 19:13 41.84981 8.49758 20992 ft 409 kts 287°
2026-05-06 19:13 41.85988 8.46216 21550 ft 410 kts 287°
2026-05-06 19:13 41.86997 8.42664 22081 ft 412 kts 287°
2026-05-06 19:13 41.88023 8.39041 22590 ft 415 kts 287°
2026-05-06 19:14 41.89037 8.35453 23086 ft 417 kts 286°
2026-05-06 19:14 41.90063 8.31815 23589 ft 418 kts 286°
2026-05-06 19:14 41.91099 8.28136 23928 ft 420 kts 286°
2026-05-06 19:14 41.92123 8.24492 23968 ft 420 kts 285°
2026-05-06 19:15 41.93156 8.20813 23970 ft 420 kts 285°
2026-05-06 19:15 41.94183 8.17150 23974 ft 420 kts 285°
2026-05-06 19:15 41.95198 8.13526 23969 ft 420 kts 285°
2026-05-06 19:15 41.96220 8.09871 23964 ft 419 kts 285°
2026-05-06 19:16 41.97255 8.06165 23964 ft 419 kts 285°
2026-05-06 19:16 41.98269 8.02525 23962 ft 419 kts 285°
2026-05-06 19:16 41.99285 7.98883 23958 ft 419 kts 285°
2026-05-06 19:16 42.00309 7.95207 23952 ft 419 kts 285°
2026-05-06 19:17 42.01335 7.91519 23950 ft 420 kts 285°
2026-05-06 19:17 42.02346 7.87876 23951 ft 420 kts 285°
2026-05-06 19:17 42.03359 7.84217 23949 ft 420 kts 285°
2026-05-06 19:17 42.04372 7.80551 23947 ft 419 kts 285°
2026-05-06 19:18 42.05391 7.76857 23949 ft 419 kts 285°
2026-05-06 19:18 42.06404 7.73183 23946 ft 418 kts 285°
2026-05-06 19:18 42.07407 7.69539 23950 ft 418 kts 285°
2026-05-06 19:18 42.08408 7.65897 23946 ft 419 kts 285°
2026-05-06 19:19 42.09412 7.62234 23950 ft 419 kts 285°
2026-05-06 19:19 42.10422 7.58553 23945 ft 419 kts 285°
2026-05-06 19:19 42.11431 7.54873 23948 ft 419 kts 285°
2026-05-06 19:19 42.12447 7.51165 23947 ft 419 kts 285°
2026-05-06 19:20 42.13438 7.47533 23947 ft 419 kts 285°
2026-05-06 19:20 42.14450 7.43815 23945 ft 419 kts 285°
2026-05-06 19:20 42.15445 7.40155 23944 ft 419 kts 285°
2026-05-06 19:20 42.16439 7.36497 23950 ft 419 kts 285°
2026-05-06 19:21 42.17449 7.32773 23944 ft 419 kts 285°
2026-05-06 19:21 42.18439 7.29118 23944 ft 418 kts 284°
2026-05-06 19:21 42.19435 7.25439 23942 ft 418 kts 284°
2026-05-06 19:21 42.20421 7.21786 23946 ft 418 kts 284°
2026-05-06 19:22 42.21417 7.18095 23944 ft 418 kts 284°
2026-05-06 19:22 42.22402 7.14434 23940 ft 418 kts 284°
2026-05-06 19:22 42.23387 7.10768 23940 ft 417 kts 284°
2026-05-06 19:22 42.24381 7.07065 23942 ft 417 kts 284°
2026-05-06 19:23 42.25364 7.03395 23941 ft 416 kts 285°
2026-05-06 19:23 42.26346 6.99724 23944 ft 416 kts 285°
2026-05-06 19:23 42.27324 6.96069 23943 ft 416 kts 284°
2026-05-06 19:23 42.28297 6.92426 23939 ft 416 kts 284°
2026-05-06 19:24 42.29280 6.88735 23940 ft 416 kts 284°
2026-05-06 19:24 42.30246 6.85101 23942 ft 416 kts 284°
2026-05-06 19:24 42.31231 6.81396 23940 ft 416 kts 284°
2026-05-06 19:24 42.32192 6.77769 23942 ft 415 kts 284°
2026-05-06 19:25 42.33174 6.74059 23938 ft 416 kts 284°
2026-05-06 19:25 42.34143 6.70388 23937 ft 416 kts 284°
2026-05-06 19:25 42.35104 6.66744 23939 ft 416 kts 284°
2026-05-06 19:25 42.36074 6.63060 23947 ft 415 kts 284°
2026-05-06 19:26 42.37041 6.59391 23941 ft 415 kts 284°
2026-05-06 19:26 42.37999 6.55743 23942 ft 415 kts 284°
2026-05-06 19:26 42.38958 6.52092 23942 ft 415 kts 284°
2026-05-06 19:26 42.39921 6.48420 23947 ft 415 kts 284°
2026-05-06 19:27 42.40877 6.44765 23947 ft 414 kts 284°
2026-05-06 19:27 42.41846 6.41061 23949 ft 414 kts 284°
2026-05-06 19:27 42.42789 6.37445 23945 ft 413 kts 284°
2026-05-06 19:27 42.43751 6.33748 23951 ft 413 kts 283°
2026-05-06 19:28 42.44698 6.30106 23948 ft 413 kts 283°
2026-05-06 19:28 42.45646 6.26449 23937 ft 412 kts 283°
2026-05-06 19:28 42.46586 6.22822 23947 ft 412 kts 283°
2026-05-06 19:28 42.47541 6.19133 23955 ft 412 kts 283°
2026-05-06 19:29 42.48485 6.15477 23943 ft 412 kts 283°
2026-05-06 19:29 42.49429 6.11818 23948 ft 412 kts 283°
2026-05-06 19:29 42.50363 6.08194 23954 ft 411 kts 283°
2026-05-06 19:29 42.51296 6.04564 23948 ft 411 kts 283°
2026-05-06 19:30 42.52233 6.00913 23968 ft 411 kts 283°
2026-05-06 19:30 42.53174 5.97243 23955 ft 410 kts 283°
2026-05-06 19:30 42.54113 5.93574 23964 ft 411 kts 283°
2026-05-06 19:30 42.55036 5.89962 23961 ft 411 kts 283°
2026-05-06 19:31 42.55973 5.86286 23967 ft 411 kts 283°
2026-05-06 19:31 42.56905 5.82630 23960 ft 411 kts 283°
2026-05-06 19:31 42.58758 5.75337 23960 ft 410 kts 283°
2026-05-06 19:32 42.59683 5.71691 23960 ft 410 kts 283°
2026-05-06 19:32 42.60613 5.68015 23961 ft 410 kts 284°
2026-05-06 19:32 42.61541 5.64344 23957 ft 411 kts 284°
2026-05-06 19:32 42.62454 5.60725 23950 ft 410 kts 284°
2026-05-06 19:33 42.63375 5.57077 23704 ft 407 kts 284°
2026-05-06 19:33 42.64289 5.53433 22833 ft 411 kts 284°
2026-05-06 19:33 42.65196 5.49792 21770 ft 417 kts 285°
2026-05-06 19:33 42.66121 5.46093 20955 ft 416 kts 286°
2026-05-06 19:34 42.67055 5.42366 20239 ft 412 kts 286°
2026-05-06 19:34 42.67969 5.38716 19549 ft 408 kts 287°
2026-05-06 19:34 42.68912 5.35103 18792 ft 408 kts 292°
2026-05-06 19:34 42.70404 5.31850 18005 ft 410 kts 308°
2026-05-06 19:35 42.72528 5.29294 17326 ft 411 kts 323°
2026-05-06 19:35 42.74933 5.27327 16887 ft 402 kts 327°
2026-05-06 19:35 42.77320 5.25453 16898 ft 392 kts 327°
2026-05-06 19:35 42.79678 5.23599 16915 ft 391 kts 327°
2026-05-06 19:36 42.82000 5.21758 16798 ft 386 kts 327°
2026-05-06 19:36 42.84304 5.19921 16406 ft 379 kts 327°
2026-05-06 19:36 42.86540 5.18134 15990 ft 371 kts 327°